DW6344 Weather Reports


time (UTC)temp
C
wind
direction
speed
KPH
gust
KPH
rain 1hr
cm
rain 24hr
cm
rain mn
cm
humidity
%
barometer
mb
20260509121358 15 14 0.0 1.6 0.00 0.03 0.00 82 1011.2
20260509120836 15 14 0.0 1.6 0.00 0.03 0.00 84 1011.2
20260509120344 15 14 0.0 1.6 0.00 0.03 0.00 84 1011.2
20260509115841 15 14 0.0 0.0 0.00 0.03 0.00 85 1011.2
20260509115346 14 14 0.0 0.0 0.00 0.03 0.00 85 1011.2
20260509114917 14 14 0.0 0.0 0.00 0.03 0.00 86 1011.3
20260509114410 14 18 0.0 0.0 0.00 0.03 0.00 86 1011.3
20260509113837 13 18 0.0 0.0 0.00 0.03 0.00 86 1011.3
20260509113345 13 18 0.0 1.6 0.00 0.03 0.00 86 1011.3
20260509112843 13 18 0.0 1.6 0.00 0.03 0.00 86 1011.3
20260509112330 13 18 0.0 0.0 0.00 0.03 0.00 86 1011.3
20260509111831 13 18 0.0 0.0 0.00 0.03 0.00 86 1011.2
20260509111357 13 18 0.0 0.0 0.00 0.03 0.00 86 1011.2
20260509110842 13 18 0.0 0.0 0.00 0.03 0.00 86 1011.3
20260509110337 13 18 0.0 0.0 0.00 0.03 0.00 86 1011.2
20260509105836 12 18 0.0 0.0 0.00 0.03 0.00 86 1011.3
20260509105411 12 18 0.0 0.0 0.00 0.03 0.00 86 1011.3
20260509104856 12 18 0.0 0.0 0.00 0.03 0.00 86 1011.3
20260509104335 12 18 0.0 1.6 0.00 0.03 0.00 86 1011.3
20260509103846 12 18 0.0 1.6 0.00 0.03 0.00 86 1011.5
20260509103348 12 18 0.0 1.6 0.00 0.03 0.00 85 1011.4
20260509102842 12 18 0.0 1.6 0.00 0.03 0.00 85 1011.4
20260509102344 12 13 0.0 0.0 0.00 0.03 0.00 85 1011.4
20260509101844 12 13 0.0 1.6 0.00 0.03 0.00 85 1011.4
20260509101417 12 13 0.0 1.6 0.00 0.03 0.00 85 1011.5
20260509100856 12 13 0.0 1.6 0.00 0.03 0.00 84 1011.4
20260509100359 12 13 0.0 1.6 0.00 0.03 0.00 84 1011.4
20260509095842 12 13 0.0 1.6 0.00 0.03 0.00 84 1011.4
20260509095351 12 13 0.0 1.6 0.00 0.03 0.00 84 1011.4
20260509094837 12 13 0.0 1.6 0.00 0.03 0.00 84 1011.4
20260509094331 13 13 0.0 1.6 0.00 0.03 0.00 84 1011.4
20260509093847 13 13 0.0 4.8 0.00 0.03 0.00 84 1011.3
20260509093404 12 32 0.0 3.2 0.00 0.03 0.00 85 1011.4
20260509092852 12 34 0.0 1.6 0.00 0.03 0.00 85 1011.4
20260509092357 12 34 0.0 3.2 0.00 0.03 0.00 85 1011.3
20260509091834 12 27 0.0 3.2 0.00 0.03 0.00 85 1011.2
20260509091331 12 26 0.0 1.6 0.00 0.03 0.00 85 1011.3
20260509090830 12 27 0.0 1.6 0.00 0.03 0.00 84 1011.2
20260509090337 12 27 0.0 1.6 0.00 0.03 0.00 84 1011.4
20260509085847 12 27 0.0 0.0 0.00 0.03 0.00 84 1011.4
20260509085339 12 27 0.0 0.0 0.00 0.03 0.00 84 1011.4
20260509084903 12 27 0.0 0.0 0.00 0.03 0.00 83 1011.4
20260509084342 12 27 0.0 0.0 0.00 0.03 0.00 83 1011.6
20260509083825 12 27 0.0 0.0 0.00 0.03 0.00 83 1011.6
20260509083336 12 27 0.0 3.2 0.00 0.03 0.00 83 1011.5
20260509082838 12 27 0.0 3.2 0.00 0.03 0.00 83 1011.5
20260509082342 12 27 0.0 4.8 0.00 0.03 0.00 83 1011.4
20260509081857 12 88 0.0 0.0 0.00 0.03 0.00 82 1011.4
20260509081359 12 88 0.0 1.6 0.00 0.03 0.00 82 1011.4
20260509080832 12 88 0.0 1.6 0.00 0.03 0.00 82 1011.3
20260509080348 12 87 0.0 1.6 0.00 0.03 0.00 82 1011.3
20260509075848 12 88 0.0 0.0 0.00 0.03 0.00 81 1011.3
20260509075344 12 87 0.0 0.0 0.00 0.03 0.00 81 1011.3
20260509074845 12 87 0.0 0.0 0.00 0.03 0.00 81 1011.3
20260509074342 12 88 0.0 0.0 0.00 0.03 0.00 81 1011.4
20260509073837 12 88 0.0 0.0 0.00 0.03 0.00 81 1011.4
20260509073338 12 88 0.0 1.6 0.00 0.03 0.00 81 1011.4
20260509072844 12 88 0.0 1.6 0.00 0.03 0.00 80 1011.5
20260509072342 12 87 0.0 0.0 0.00 0.03 0.00 80 1011.6
20260509071840 12 87 0.0 1.6 0.00 0.03 0.00 80 1011.6
20260509071347 12 87 0.0 1.6 0.00 0.03 0.00 80 1011.6
20260509070843 13 88 0.0 0.0 0.00 0.03 0.00 79 1011.7
20260509070332 13 87 0.0 0.0 0.00 0.03 0.00 79 1011.8
20260509065831 13 88 0.0 0.0 0.00 0.03 0.00 78 1011.7
20260509065350 13 88 0.0 1.6 0.00 0.03 0.00 78 1011.8
20260509064829 13 87 0.0 4.8 0.00 0.03 0.00 77 1011.8
20260509064329 13 87 1.6 4.8 0.00 0.03 0.00 77 1011.8
20260509063834 13 25 0.0 1.6 0.00 0.03 0.00 77 1011.8
20260509063344 13 25 0.0 3.2 0.00 0.03 0.00 76 1011.9
20260509062858 13 25 0.0 3.2 0.00 0.03 0.00 76 1011.8
20260509062342 13 26 0.0 4.8 0.00 0.03 0.00 76 1012.0
20260509061858 13 25 0.0 4.8 0.00 0.03 0.00 76 1012.0
20260509061357 14 83 0.0 3.2 0.00 0.03 0.00 76 1012.2
20260509060840 14 84 0.0 3.2 0.00 0.03 0.00 76 1012.0
20260509060352 13 121 0.0 3.2 0.00 0.03 0.00 76 1012.1
20260509055829 13 127 0.0 4.8 0.00 0.03 0.00 76 1012.1
20260509055336 13 44 0.0 4.8 0.00 0.03 0.00 76 1012.1
20260509054908 13 43 0.0 3.2 0.00 0.03 0.00 76 1012.0
20260509054407 13 43 0.0 3.2 0.00 0.03 0.00 76 1012.1
20260509053834 13 48 0.0 1.6 0.00 0.03 0.00 76 1012.2
20260509053333 13 49 0.0 3.2 0.00 0.03 0.00 76 1012.1
20260509052831 13 48 0.0 3.2 0.00 0.03 0.00 75 1012.2
20260509052342 13 38 0.0 3.2 0.00 0.03 0.00 75 1012.2
20260509051843 13 71 0.0 4.8 0.00 0.03 0.00 75 1012.1
20260509051327 14 71 1.6 4.8 0.00 0.03 0.00 75 1012.0
20260509050847 14 19 0.0 1.6 0.00 0.03 0.00 75 1012.0
20260509050400 14 15 0.0 3.2 0.00 0.03 0.00 75 1012.2
20260509045901 14 339 0.0 3.2 0.00 0.03 0.00 75 1012.1
20260509045340 14 339 0.0 3.2 0.00 0.03 0.00 74 1012.2
20260509044854 14 338 0.0 3.2 0.00 0.03 0.00 74 1012.2
20260509044347 14 338 0.0 1.6 0.00 0.03 0.00 73 1012.1
20260509043844 14 339 0.0 4.8 0.00 0.03 0.00 73 1012.0
20260509043327 14 339 0.0 4.8 0.00 0.03 0.00 73 1012.1
20260509042847 14 65 0.0 1.6 0.00 0.03 0.00 72 1012.1
20260509042334 14 65 0.0 1.6 0.00 0.03 0.00 72 1012.2
20260509041905 14 65 0.0 1.6 0.00 0.03 0.00 71 1012.0
20260509041338 14 65 0.0 4.8 0.00 0.03 0.00 71 1012.1
20260509040901 14 65 0.0 4.8 0.00 0.03 0.00 71 1012.1
20260509040341 14 360 0.0 4.8 0.00 0.03 0.00 71 1012.2
20260509035842 14 344 0.0 3.2 0.00 0.03 0.03 71 1012.2
20260509035341 14 346 0.0 3.2 0.00 0.03 0.03 71 1012.4
20260509034831 14 355 0.0 3.2 0.00 0.03 0.03 70 1012.4
20260509034354 14 355 0.0 3.2 0.00 0.03 0.03 69 1012.4
20260509033835 15 355 0.0 3.2 0.00 0.03 0.03 69 1012.3
20260509033404 15 355 1.6 6.4 0.00 0.03 0.03 69 1012.5
20260509032837 14 360 1.6 6.4 0.00 0.03 0.03 69 1012.6
20260509032356 14 79 0.0 4.8 0.00 0.03 0.03 69 1012.7
20260509031834 14 74 0.0 1.6 0.00 0.03 0.03 70 1012.6
20260509031409 13 74 0.0 3.2 0.00 0.03 0.03 70 1012.5
20260509030907 13 74 0.0 4.8 0.00 0.03 0.03 70 1012.5
20260509030335 13 47 0.0 4.8 0.00 0.03 0.03 71 1012.5
20260509025830 12 113 0.0 4.8 0.00 0.03 0.03 72 1012.7
20260509025333 12 76 0.0 3.2 0.00 0.03 0.03 73 1012.8
20260509024838 12 17 0.0 0.0 0.00 0.03 0.03 73 1012.4
20260509024340 12 17 0.0 0.0 0.00 0.03 0.03 74 1012.7
20260509023855 12 17 0.0 0.0 0.00 0.03 0.03 73 1012.9
20260509023400 12 17 0.0 0.0 0.00 0.03 0.03 72 1012.9
20260509022838 12 17 0.0 0.0 0.00 0.03 0.03 71 1012.8
20260509022345 12 17 0.0 0.0 0.00 0.03 0.03 71 1012.7
20260509021831 12 17 0.0 0.0 0.00 0.03 0.03 70 1012.4
20260509021338 12 17 0.0 0.0 0.00 0.03 0.03 69 1012.6
20260509020834 12 17 0.0 0.0 0.00 0.03 0.03 68 1012.5
20260509020334 13 17 0.0 0.0 0.00 0.03 0.03 68 1012.6
20260509015850 13 17 0.0 0.0 0.00 0.03 0.03 67 1012.6
20260509015347 13 17 0.0 0.0 0.00 0.03 0.03 67 1012.5
20260509014854 13 17 0.0 0.0 0.00 0.03 0.03 66 1012.3
20260509014409 13 17 0.0 0.0 0.00 0.03 0.03 65 1012.3
20260509013838 13 17 0.0 0.0 0.00 0.03 0.03 64 1012.3
20260509013345 13 17 0.0 0.0 0.00 0.03 0.03 64 1012.2
20260509012835 13 17 0.0 0.0 0.00 0.03 0.03 63 1012.1
20260509012334 13 17 0.0 0.0 0.00 0.03 0.03 62 1012.1
20260509011834 14 17 0.0 0.0 0.00 0.03 0.03 61 1012.0
20260509011330 14 17 0.0 0.0 0.00 0.03 0.03 61 1012.0
20260509010835 14 17 0.0 0.0 0.00 0.03 0.03 61 1012.0
20260509010345 14 17 0.0 0.0 0.00 0.03 0.03 58 1012.0
20260509005833 15 17 0.0 0.0 0.00 0.03 0.03 57 1012.1
20260509005411 15 17 0.0 0.0 0.00 0.03 0.03 56 1012.0
20260509004848 15 17 0.0 0.0 0.00 0.03 0.03 56 1012.0
20260509004344 15 17 0.0 0.0 0.00 0.03 0.03 55 1011.9
20260509003829 15 17 0.0 0.0 0.00 0.03 0.03 54 1012.0
20260509003333 16 17 0.0 0.0 0.00 0.03 0.03 53 1012.0
20260509002843 16 17 0.0 0.0 0.00 0.03 0.03 53 1011.7
20260509002329 16 17 0.0 0.0 0.00 0.03 0.03 51 1011.8
20260509001834 16 17 0.0 0.0 0.00 0.03 0.03 50 1011.8
20260509001328 17 17 0.0 0.0 0.00 0.03 0.03 49 1011.8
20260509000843 17 17 0.0 0.0 0.00 0.03 0.03 48 1011.8
20260509000349 17 17 0.0 0.0 0.00 0.03 0.03 46 1011.8
20260508235901 17 17 0.0 0.0 0.00 0.05 0.03 46 1011.7
20260508235334 18 17 0.0 0.0 0.00 0.05 0.03 45 1011.6
20260508234845 18 17 0.0 0.0 0.00 0.05 0.03 43 1011.4
20260508234330 18 17 0.0 0.0 0.00 0.05 0.03 42 1011.4
20260508233837 18 17 0.0 1.6 0.00 0.05 0.03 41 1011.3
20260508233344 19 17 0.0 1.6 0.00 0.05 0.03 40 1011.2
20260508232858 19 17 0.0 1.6 0.00 0.05 0.03 39 1011.2
20260508232330 20 17 0.0 3.2 0.00 0.05 0.03 38 1011.1
20260508231835 20 17 0.0 3.2 0.00 0.05 0.03 37 1011.1
20260508231358 20 13 0.0 3.2 0.00 0.05 0.03 35 1011.0
20260508230858 20 105 0.0 3.2 0.00 0.05 0.03 35 1011.0
20260508230359 20 105 1.6 3.2 0.00 0.05 0.03 36 1011.0
20260508225849 20 65 1.6 8.0 0.00 0.05 0.03 34 1011.1
20260508225345 21 91 1.6 8.0 0.00 0.05 0.03 33 1011.2
20260508224847 21 32 1.6 4.8 0.00 0.05 0.03 34 1011.1
20260508224402 21 9 1.6 3.2 0.00 0.05 0.03 32 1011.1
20260508223829 21 42 0.0 3.2 0.00 0.05 0.03 34 1011.2
20260508223348 21 43 1.6 4.8 0.00 0.05 0.03 34 1011.2
20260508222840 21 35 1.6 6.4 0.00 0.05 0.03 32 1011.2
20260508222346 21 75 1.6 6.4 0.00 0.05 0.03 33 1011.2
20260508221843 21 78 0.0 6.4 0.00 0.05 0.03 31 1011.3
20260508221330 21 67 1.6 6.4 0.00 0.05 0.03 32 1011.4
20260508220835 21 5 3.2 4.8 0.00 0.05 0.03 31 1011.3
20260508220400 21 101 0.0 1.6 0.00 0.05 0.03 31 1011.3
20260508215843 21 101 0.0 3.2 0.00 0.05 0.03 33 1011.2
20260508215344 21 101 0.0 4.8 0.00 0.05 0.03 31 1011.2
20260508214848 21 57 1.6 4.8 0.00 0.05 0.03 31 1011.2
20260508214331 21 140 0.0 3.2 0.00 0.05 0.03 32 1011.2
20260508213830 21 140 0.0 4.8 0.00 0.05 0.03 30 1011.1
20260508213348 22 307 0.0 4.8 0.00 0.05 0.03 32 1011.1
20260508212847 22 288 3.2 4.8 0.00 0.05 0.03 30 1011.1
20260508212349 22 84 1.6 4.8 0.00 0.05 0.03 28 1011.2
20260508211853 22 83 1.6 4.8 0.00 0.05 0.03 28 1011.2
20260508211333 22 72 1.6 4.8 0.00 0.05 0.03 32 1011.2
20260508210855 22 38 0.0 1.6 0.00 0.05 0.03 31 1011.2
20260508210338 22 38 0.0 4.8 0.00 0.05 0.03 27 1011.2
20260508205835 22 37 0.0 4.8 0.00 0.05 0.03 29 1011.4
20260508205344 23 61 1.6 4.8 0.00 0.05 0.03 28 1011.4
20260508204918 23 49 1.6 4.8 0.00 0.05 0.03 27 1011.4
20260508204337 23 11 1.6 6.4 0.00 0.05 0.03 26 1011.4
20260508203900 23 246 0.0 4.8 0.00 0.05 0.03 28 1011.5
20260508203414 23 303 0.0 4.8 0.00 0.05 0.03 28 1011.5
20260508202848 23 310 1.6 4.8 0.00 0.05 0.03 27 1011.5
20260508202357 23 68 0.0 8.0 0.00 0.05 0.03 28 1011.4
20260508201850 23 69 0.0 8.0 0.00 0.05 0.03 27 1011.4
20260508201402 23 24 1.6 4.8 0.00 0.05 0.03 26 1011.4
20260508200904 23 18 1.6 4.8 0.00 0.05 0.03 25 1011.4
20260508200347 23 46 1.6 6.4 0.00 0.05 0.03 27 1011.5
20260508195842 23 64 1.6 6.4 0.00 0.05 0.03 28 1011.7
20260508195328 24 25 3.2 4.8 0.00 0.05 0.03 26 1011.7
20260508194849 24 69 1.6 3.2 0.00 0.05 0.03 27 1011.9
20260508194332 24 77 0.0 3.2 0.00 0.05 0.03 26 1012.0
20260508193837 23 78 1.6 3.2 0.00 0.05 0.03 26 1012.1
20260508193348 23 77 0.0 4.8 0.00 0.05 0.03 25 1012.1
20260508192830 23 121 0.0 6.4 0.00 0.05 0.03 25 1012.2
20260508192408 23 49 3.2 8.0 0.00 0.05 0.03 27 1012.3
20260508191858 22 64 1.6 6.4 0.00 0.05 0.03 28 1012.3
20260508191340 23 330 3.2 6.4 0.00 0.05 0.03 28 1012.3
20260508190855 22 18 3.2 6.4 0.00 0.05 0.03 25 1012.4
20260508190340 22 71 1.6 6.4 0.00 0.05 0.03 27 1012.4
20260508185847 22 94 1.6 6.4 0.00 0.05 0.03 27 1012.5
20260508185346 22 325 1.6 6.4 0.00 0.05 0.03 25 1012.5
20260508184828 22 327 1.6 4.8 0.00 0.05 0.03 25 1012.6
20260508184336 22 88 0.0 4.8 0.00 0.05 0.03 27 1012.7
20260508183828 22 91 1.6 4.8 0.00 0.05 0.03 27 1012.9
20260508183333 22 86 1.6 4.8 0.00 0.05 0.03 27 1012.9
20260508182841 22 107 1.6 8.0 0.00 0.05 0.03 25 1012.9
20260508182345 22 77 1.6 8.0 0.00 0.05 0.03 27 1013.0
20260508181846 22 102 0.0 4.8 0.00 0.05 0.03 29 1013.1
20260508181329 22 13 1.6 4.8 0.00 0.05 0.03 30 1013.2
20260508180829 22 17 1.6 4.8 0.00 0.05 0.03 25 1013.2
20260508180334 22 302 1.6 4.8 0.00 0.05 0.03 32 1013.2
20260508175830 21 55 1.6 4.8 0.00 0.05 0.03 27 1013.2
20260508175403 21 71 0.0 4.8 0.00 0.05 0.03 25 1013.4
20260508174856 21 39 0.0 4.8 0.00 0.05 0.03 28 1013.4
20260508174329 21 239 1.6 4.8 0.00 0.05 0.03 26 1013.4
20260508173831 21 53 1.6 3.2 0.00 0.05 0.03 28 1013.5
20260508173338 21 120 1.6 8.0 0.00 0.05 0.03 31 1013.6
20260508172828 21 99 1.6 6.4 0.00 0.05 0.03 31 1013.6
20260508172331 21 107 1.6 6.4 0.00 0.05 0.03 33 1013.8
20260508171829 21 115 1.6 6.4 0.00 0.05 0.03 31 1013.8
20260508171344 21 123 1.6 6.4 0.00 0.05 0.03 33 1013.9
20260508170845 21 355 3.2 4.8 0.00 0.05 0.03 29 1013.9
20260508170348 21 5 1.6 3.2 0.00 0.05 0.03 30 1014.0
20260508165845 21 65 0.0 3.2 0.00 0.08 0.03 30 1014.1
20260508165338 21 355 1.6 3.2 0.00 0.08 0.03 28 1014.1
20260508164844 21 302 1.6 4.8 0.00 0.08 0.03 31 1014.2
20260508164347 21 54 1.6 4.8 0.00 0.08 0.03 27 1014.3
20260508163828 21 39 0.0 4.8 0.00 0.08 0.03 29 1014.3
20260508163341 21 300 0.0 3.2 0.00 0.08 0.03 28 1014.5
20260508162840 21 57 0.0 3.2 0.00 0.08 0.03 28 1014.5
20260508162341 21 55 0.0 3.2 0.00 0.08 0.03 31 1014.5
20260508161842 21 55 1.6 4.8 0.00 0.08 0.03 29 1014.6
20260508161336 20 246 1.6 4.8 0.00 0.08 0.03 29 1014.6
20260508160841 20 69 1.6 3.2 0.00 0.08 0.03 29 1014.7
20260508160350 20 76 0.0 4.8 0.00 0.08 0.03 31 1014.7
20260508155832 20 53 1.6 4.8 0.00 0.08 0.03 33 1014.7
20260508155357 20 16 0.0 8.0 0.00 0.08 0.03 32 1014.8
20260508154857 20 11 1.6 8.0 0.00 0.08 0.03 32 1014.8
20260508154404 20 53 0.0 4.8 0.00 0.08 0.03 33 1014.7
20260508153902 20 49 1.6 3.2 0.00 0.08 0.03 35 1014.7
20260508153341 20 58 1.6 4.8 0.00 0.08 0.03 35 1014.8
20260508152832 20 57 1.6 4.8 0.00 0.08 0.03 32 1014.9
20260508152349 19 5 0.0 3.2 0.00 0.08 0.03 41 1015.0
20260508151859 19 11 0.0 3.2 0.00 0.08 0.03 37 1014.9
20260508151334 19 188 0.0 3.2 0.00 0.08 0.03 35 1014.9
20260508150848 18 162 0.0 4.8 0.00 0.08 0.03 38 1014.9
20260508150408 18 136 1.6 4.8 0.00 0.08 0.03 38 1015.0
20260508145845 19 66 0.0 3.2 0.00 0.08 0.03 39 1014.9
20260508145415 19 65 0.0 3.2 0.00 0.08 0.03 38 1014.8
20260508144858 18 360 0.0 1.6 0.00 0.08 0.03 43 1014.9
20260508144335 18 346 0.0 1.6 0.00 0.08 0.03 46 1014.9
20260508143829 18 355 0.0 1.6 0.00 0.08 0.03 44 1015.0
20260508143330 17 355 0.0 4.8 0.00 0.08 0.03 47 1015.0
20260508142833 17 303 0.0 6.4 0.00 0.08 0.03 45 1015.0
20260508142325 17 329 0.0 8.0 0.00 0.08 0.03 43 1015.0
20260508141858 17 298 1.6 3.2 0.00 0.08 0.03 47 1015.0
20260508141401 17 176 0.0 3.2 0.00 0.08 0.03 48 1014.9
20260508140905 17 176 1.6 3.2 0.00 0.08 0.03 46 1014.9
20260508140348 16 98 1.6 3.2 0.00 0.08 0.03 47 1014.9
20260508135833 16 15 0.0 4.8 0.00 0.10 0.03 49 1014.9
20260508135335 16 110 0.0 4.8 0.00 0.10 0.03 49 1014.9
20260508134836 16 342 1.6 3.2 0.00 0.10 0.03 54 1014.9
20260508134353 16 160 0.0 4.8 0.00 0.10 0.03 53 1014.9
20260508133854 15 80 0.0 4.8 0.00 0.10 0.03 56 1014.9
20260508133354 15 286 0.0 3.2 0.00 0.10 0.03 57 1014.9
20260508132908 15 259 0.0 4.8 0.00 0.10 0.03 58 1014.8
20260508132342 15 205 0.0 3.2 0.00 0.10 0.03 59 1014.8
20260508131919 14 267 1.6 3.2 0.00 0.10 0.03 62 1014.8
20260508131335 14 222 1.6 3.2 0.03 0.10 0.03 66 1014.7
20260508130840 13 253 1.6 3.2 0.03 0.10 0.03 68 1014.7
20260508130348 13 72 0.0 1.6 0.03 0.10 0.03 74 1014.6
20260508125828 13 72 0.0 1.6 0.03 0.15 0.03 76 1014.5
20260508125330 12 25 0.0 1.6 0.03 0.15 0.03 78 1014.5
20260508124832 12 25 0.0 3.2 0.03 0.15 0.03 81 1014.4
20260508124337 12 25 0.0 4.8 0.03 0.15 0.03 83 1014.4
20260508123828 11 85 1.6 4.8 0.03 0.15 0.03 86 1014.4
20260508123353 11 126 0.0 3.2 0.03 0.15 0.03 88 1014.3
20260508122906 11 126 0.0 3.2 0.03 0.15 0.03 90 1014.2
20260508122345 10 46 0.0 4.8 0.03 0.15 0.03 90 1014.2
20260508121857 10 32 1.6 4.8 0.03 0.15 0.03 90 1014.2